Change the Weather History Date:

Thursday, February 14, 2013

  Actual Average Record
Temperature  
Mean Temperature 45 °F -  
Max Temperature 57 °F 61 °F 75 °F (2000)
Min Temperature 33 °F 36 °F 20 °F (2008)
Degree Days  
Heating Degree Days 20    
Moisture  
Dew Point 36 °F    
Average Humidity 89    
Maximum Humidity 100    
Minimum Humidity 50    
Precipitation  
Precipitation 0.00 in - - ()
Sea Level Pressure  
Sea Level Pressure 30.06 in    
Wind  
Wind Speed 3 mph (North)    
Max Wind Speed 7 mph    
Max Gust Speed -    
Visibility 9 miles    
Events      
Averages and records for this station are not official NWS values.
T = Trace of Precipitation, MM = Missing Value Source: NWS Daily Summary

Daily Weather History Graph

Daily Weather History Graph

Search for Another Location

Airport or City:

Trip Planner

Search our weather history database for the weather conditions in past years. The results will help you decide how hot, cold, wet, or windy it might be!

Date:

Astronomy

Feb. 14, 2013 Rise Set
Actual Time 7:23 AM EST 6:25 PM EST
Civil Twilight 6:58 AM EST 6:50 PM EST
Nautical Twilight 6:29 AM EST 7:19 PM EST
Astronomical Twilight 6:00 AM EST 7:47 PM EST
Moon 9:44 AM EST (2/14) 11:06 PM EST (2/14)
Length of Visible Light 11h 52m
Length of Day
11h 02m
Waxing Crescent, 21% of the Moon is Illuminated
Feb 14
Waxing Crescent
Feb 17
First Quarter
Feb 25
Full
Mar 4
Last Quarter
Mar 11
New

Hourly Weather History & Observations

Time (EST) Temp. Windchill Dew Point Humidity Pressure Visibility Wind Dir Wind Speed Gust Speed Precip Events Conditions
12:58 AM 41.5 °F 37.8 °F 37.0 °F 84% 30.02 in 10.0 mi WNW 5.8 mph - N/A   Clear
1:58 AM 39.6 °F - 36.1 °F 88% 30.03 in 10.0 mi NW 2.3 mph - N/A   Clear
2:58 AM 36.9 °F - 36.5 °F 99% 30.03 in 10.0 mi NW 1.2 mph - N/A   Clear
3:45 AM 33.8 °F 30.8 °F 33.8 °F 100% 30.01 in 4.0 mi NNW 3.5 mph - N/A   Clear
3:46 AM 33.8 °F 30.8 °F 33.8 °F 100% 30.01 in 4.0 mi NNW 3.5 mph - N/A   Clear
3:51 AM 33.8 °F 30.8 °F 33.8 °F 100% 30.01 in 10.0 mi NNW 3.5 mph - N/A   Clear
3:58 AM 34.9 °F - 34.7 °F 99% 30.02 in 10.0 mi North 2.3 mph - N/A   Clear
4:53 AM 35.6 °F - 35.6 °F 100% 30.02 in 7.0 mi Calm Calm - N/A   Clear
4:58 AM 34.7 °F - 34.3 °F 99% 30.04 in 7.0 mi ESE 1.2 mph - N/A   Clear
5:03 AM 33.8 °F - 33.8 °F 100% 30.02 in 9.0 mi SE 2.3 mph - N/A   Clear
5:13 AM 33.8 °F - 33.8 °F 100% 30.04 in 8.0 mi Calm Calm - N/A   Clear
5:28 AM 33.8 °F - 33.8 °F 100% 30.04 in 9.0 mi North 2.3 mph - N/A   Clear
5:58 AM 34.7 °F - 34.2 °F 98% 30.06 in 10.0 mi Calm Calm - N/A   Clear
6:58 AM 34.5 °F 28.6 °F 33.3 °F 95% 30.05 in 10.0 mi NW 6.9 mph - N/A   Clear
7:58 AM 36.3 °F - 34.2 °F 92% 30.08 in 10.0 mi NW 2.3 mph - N/A   Clear
8:58 AM 39.2 °F 37.0 °F 37.0 °F 92% 30.10 in 10.0 mi NW 3.5 mph - N/A   Clear
9:58 AM 41.4 °F 39.4 °F 36.9 °F 84% 30.14 in 10.0 mi NW 3.5 mph - N/A   Clear
10:58 AM 43.7 °F - 36.3 °F 75% 30.13 in 10.0 mi Calm Calm - N/A   Partly Cloudy
11:58 AM 46.0 °F - 37.6 °F 72% 30.12 in 10.0 mi Calm Calm - N/A   Partly Cloudy
12:58 PM 48.4 °F - 38.5 °F 69% 30.07 in 10.0 mi Variable 1.2 mph - N/A   Partly Cloudy
1:58 PM 51.6 °F - 40.5 °F 66% 30.07 in 10.0 mi NW 5.8 mph - N/A   Partly Cloudy
2:58 PM 52.7 °F - 39.4 °F 61% 30.05 in 10.0 mi West 4.6 mph - N/A   Clear
3:58 PM 55.4 °F - 39.2 °F 54% 30.03 in 10.0 mi Variable 3.5 mph - N/A   Clear
4:58 PM 57.4 °F - 38.8 °F 50% 30.03 in 10.0 mi NW 6.9 mph - N/A   Clear
5:58 PM 54.5 °F - 38.7 °F 55% 30.04 in 10.0 mi NW 5.8 mph - N/A   Clear
6:58 PM 46.6 °F - 41.0 °F 81% 30.06 in 10.0 mi SE 2.3 mph - N/A   Clear
7:58 PM 42.3 °F - 39.7 °F 91% 30.06 in 10.0 mi SE 2.3 mph - N/A   Clear
8:58 PM 39.4 °F - 38.1 °F 95% 30.09 in 10.0 mi ESE 2.3 mph - N/A   Clear
9:58 PM 38.8 °F - 38.5 °F 99% 30.10 in 10.0 mi SE 2.3 mph - N/A   Clear
10:08 PM 37.4 °F 34.9 °F 37.4 °F 100% 30.09 in 7.0 mi SE 3.5 mph - N/A   Clear
10:23 PM 35.6 °F 32.8 °F 35.6 °F 100% 30.09 in 10.0 mi SE 3.5 mph - N/A   Clear
10:48 PM 35.6 °F 32.8 °F 35.6 °F 100% 30.09 in 9.0 mi SE 3.5 mph - N/A   Clear
10:58 PM 35.1 °F 32.2 °F 34.9 °F 99% 30.10 in 10.0 mi ESE 3.5 mph - N/A   Clear
11:13 PM 35.6 °F 32.8 °F 35.6 °F 100% 30.09 in 6.0 mi SE 3.5 mph - N/A   Clear
11:28 PM 33.8 °F 29.6 °F 33.8 °F 100% 30.09 in 10.0 mi SE 4.6 mph - N/A   Clear
11:58 PM 34.7 °F 31.8 °F 34.5 °F 99% 30.10 in 10.0 mi SE 3.5 mph - N/A   Clear